Location: ??????
(30.5519°N, 47.7720°E)
Time: 17:56:10
(UTC+00:00)

GOES 2 Rocket - Pass Details

Date: 24 January 2021
Orbit: 569 x 1674 km, 28.4° (Epoch: 01 March)

Event Time Altitude Azimuth Distance (km) Brightness Sun altitude
Rises 16:00:11 0° 273° (W) 3,345 8.2 -21.9°
Reaches altitude 10° 16:02:27 10° 270° (W) 2,544 7.3 -22.4°
Maximum altitude 16:08:35 67° 189° (S) 1,162 4.4 -23.7°
Enters shadow 16:11:47 37° 120° (ESE) 1,745 4.9 -24.4°
